Time,TemperatureF,DewpointF,PressureIn,WindDirection,WindDirectionDegrees,WindSpeedMPH,WindSpeedGustMPH,Humidity,HourlyPrecipIn,Conditions,Clouds,dailyrainin,SoftwareType,DateUTC
2013-02-25 00:01:00,23.0,12.0,-100.00,North,-999,-999.0,-999.0,63,-99.99,,,-99.99,,2013-02-25 08:01:00,
2013-02-25 00:11:00,23.0,12.0,-100.00,North,-999,-999.0,-999.0,63,-99.99,,,-99.99,,2013-02-25 08:11:00,
2013-02-25 00:21:00,23.0,12.0,-100.00,North,-999,-999.0,-999.0,63,-99.99,,,-99.99,,2013-02-25 08:21:00,
2013-02-25 00:31:00,22.0,12.0,-100.00,North,-999,-999.0,-999.0,65,-99.99,,,-99.99,,2013-02-25 08:31:00,
2013-02-25 00:42:00,22.0,12.0,-100.00,North,-999,-999.0,-999.0,65,-99.99,,,-99.99,,2013-02-25 08:42:00,
2013-02-25 00:52:00,22.0,12.0,-100.00,North,-999,-999.0,-999.0,65,-99.99,,,-99.99,,2013-02-25 08:52:00,
2013-02-25 01:01:00,22.0,13.0,-100.00,North,-999,-999.0,-999.0,68,-99.99,,,-99.99,,2013-02-25 09:01:00,
2013-02-25 01:12:00,22.0,13.0,-100.00,North,-999,-999.0,-999.0,68,-99.99,,,-99.99,,2013-02-25 09:12:00,
2013-02-25 01:21:00,20.0,13.0,-100.00,North,-999,-999.0,-999.0,73,-99.99,,,-99.99,,2013-02-25 09:21:00,
2013-02-25 01:31:00,20.0,13.0,-100.00,North,-999,-999.0,-999.0,73,-99.99,,,-99.99,,2013-02-25 09:31:00,
2013-02-25 01:42:00,20.0,13.0,-100.00,North,-999,-999.0,-999.0,73,-99.99,,,-99.99,,2013-02-25 09:42:00,
2013-02-25 01:52:00,20.0,13.0,-100.00,North,-999,-999.0,-999.0,73,-99.99,,,-99.99,,2013-02-25 09:52:00,
2013-02-25 02:01:00,20.0,12.0,-100.00,North,-999,-999.0,-999.0,72,-99.99,,,-99.99,,2013-02-25 10:01:00,
2013-02-25 02:11:00,20.0,12.0,-100.00,North,-999,-999.0,-999.0,72,-99.99,,,-99.99,,2013-02-25 10:11:00,
2013-02-25 02:21:00,20.0,12.0,-100.00,North,-999,-999.0,-999.0,72,-99.99,,,-99.99,,2013-02-25 10:21:00,
2013-02-25 02:31:00,20.0,12.0,-100.00,North,-999,-999.0,-999.0,72,-99.99,,,-99.99,,2013-02-25 10:31:00,
2013-02-25 08:01:00,19.0,15.0,-100.00,North,-999,-999.0,-999.0,83,-99.99,,,-99.99,,2013-02-25 16:01:00,
2013-02-25 08:11:00,19.0,15.0,-100.00,North,-999,-999.0,-999.0,83,-99.99,,,-99.99,,2013-02-25 16:11:00,
2013-02-25 08:21:00,19.0,15.0,-100.00,North,-999,-999.0,-999.0,83,-99.99,,,-99.99,,2013-02-25 16:21:00,
2013-02-25 08:31:00,33.0,19.0,-100.00,North,-999,-999.0,-999.0,56,-99.99,,,-99.99,,2013-02-25 16:31:00,
2013-02-25 08:42:00,33.0,19.0,-100.00,North,-999,-999.0,-999.0,56,-99.99,,,-99.99,,2013-02-25 16:42:00,
2013-02-25 08:52:00,33.0,19.0,-100.00,North,-999,-999.0,-999.0,56,-99.99,,,-99.99,,2013-02-25 16:52:00,
2013-02-25 09:01:00,41.0,21.0,-100.00,North,-999,-999.0,-999.0,45,-99.99,,,-99.99,,2013-02-25 17:01:00,
2013-02-25 09:11:00,41.0,21.0,-100.00,North,-999,-999.0,-999.0,45,-99.99,,,-99.99,,2013-02-25 17:11:00,
2013-02-25 09:21:00,41.0,21.0,-100.00,North,-999,-999.0,-999.0,45,-99.99,,,-99.99,,2013-02-25 17:21:00,
2013-02-25 09:31:00,51.0,23.0,-100.00,North,-999,-999.0,-999.0,33,-99.99,,,-99.99,,2013-02-25 17:31:00,
2013-02-25 09:42:00,51.0,23.0,-100.00,North,-999,-999.0,-999.0,33,-99.99,,,-99.99,,2013-02-25 17:42:00,
2013-02-25 09:52:00,51.0,23.0,-100.00,North,-999,-999.0,-999.0,33,-99.99,,,-99.99,,2013-02-25 17:52:00,
2013-02-25 10:01:00,57.0,19.0,-100.00,North,-999,-999.0,-999.0,22,-99.99,,,-99.99,,2013-02-25 18:01:00,
2013-02-25 10:12:00,57.0,19.0,-100.00,North,-999,-999.0,-999.0,22,-99.99,,,-99.99,,2013-02-25 18:12:00,
2013-02-25 10:21:00,57.0,19.0,-100.00,North,-999,-999.0,-999.0,22,-99.99,,,-99.99,,2013-02-25 18:21:00,
2013-02-25 10:32:00,60.0,20.0,-100.00,North,-999,-999.0,-999.0,21,-99.99,,,-99.99,,2013-02-25 18:32:00,
2013-02-25 10:42:00,60.0,20.0,-100.00,North,-999,-999.0,-999.0,21,-99.99,,,-99.99,,2013-02-25 18:42:00,
2013-02-25 10:52:00,60.0,20.0,-100.00,North,-999,-999.0,-999.0,21,-99.99,,,-99.99,,2013-02-25 18:52:00,
2013-02-25 11:01:00,62.0,24.0,-100.00,North,-999,-999.0,-999.0,23,-99.99,,,-99.99,,2013-02-25 19:01:00,
2013-02-25 11:11:00,62.0,24.0,-100.00,North,-999,-999.0,-999.0,23,-99.99,,,-99.99,,2013-02-25 19:11:00,
2013-02-25 11:21:00,62.0,24.0,-100.00,North,-999,-999.0,-999.0,23,-99.99,,,-99.99,,2013-02-25 19:21:00,
2013-02-25 11:31:00,61.0,23.0,-100.00,North,-999,-999.0,-999.0,23,-99.99,,,-99.99,,2013-02-25 19:31:00,
2013-02-25 11:42:00,61.0,23.0,-100.00,North,-999,-999.0,-999.0,23,-99.99,,,-99.99,,2013-02-25 19:42:00,
2013-02-25 11:52:00,61.0,23.0,-100.00,North,-999,-999.0,-999.0,23,-99.99,,,-99.99,,2013-02-25 19:52:00,
2013-02-25 12:01:00,61.0,23.0,-100.00,North,-999,-999.0,-999.0,23,-99.99,,,-99.99,,2013-02-25 20:01:00,
2013-02-25 12:11:00,61.0,23.0,-100.00,North,-999,-999.0,-999.0,23,-99.99,,,-99.99,,2013-02-25 20:11:00,
2013-02-25 12:21:00,61.0,23.0,-100.00,North,-999,-999.0,-999.0,23,-99.99,,,-99.99,,2013-02-25 20:21:00,
2013-02-25 12:31:00,63.0,24.0,-100.00,North,-999,-999.0,-999.0,22,-99.99,,,0.00,,2013-02-25 20:31:00,
2013-02-25 12:42:00,63.0,24.0,-100.00,North,-999,-999.0,-999.0,22,-99.99,,,0.00,,2013-02-25 20:42:00,
2013-02-25 12:52:00,63.0,24.0,-100.00,North,-999,-999.0,-999.0,22,-99.99,,,0.00,,2013-02-25 20:52:00,
2013-02-25 13:01:00,63.0,27.0,-100.00,North,-999,-999.0,-999.0,25,-99.99,,,-99.99,,2013-02-25 21:01:00,
2013-02-25 13:11:00,63.0,27.0,-100.00,North,-999,-999.0,-999.0,25,-99.99,,,-99.99,,2013-02-25 21:11:00,
2013-02-25 13:21:00,63.0,27.0,-100.00,North,-999,-999.0,-999.0,25,-99.99,,,-99.99,,2013-02-25 21:21:00,
2013-02-25 13:31:00,63.0,28.0,-100.00,North,-999,-999.0,-999.0,26,-99.99,,,-99.99,,2013-02-25 21:31:00,
2013-02-25 13:42:00,63.0,28.0,-100.00,North,-999,-999.0,-999.0,26,-99.99,,,-99.99,,2013-02-25 21:42:00,
2013-02-25 13:52:00,63.0,28.0,-100.00,North,-999,-999.0,-999.0,26,-99.99,,,-99.99,,2013-02-25 21:52:00,
2013-02-25 14:01:00,63.0,28.0,-100.00,North,-999,-999.0,-999.0,26,-99.99,,,-99.99,,2013-02-25 22:01:00,
2013-02-25 14:11:00,63.0,28.0,-100.00,North,-999,-999.0,-999.0,26,-99.99,,,-99.99,,2013-02-25 22:11:00,
2013-02-25 14:21:00,63.0,28.0,-100.00,North,-999,-999.0,-999.0,26,-99.99,,,-99.99,,2013-02-25 22:21:00,
2013-02-25 14:31:00,62.0,28.0,-100.00,North,-999,-999.0,-999.0,27,-99.99,,,-99.99,,2013-02-25 22:31:00,
2013-02-25 14:42:00,62.0,28.0,-100.00,North,-999,-999.0,-999.0,27,-99.99,,,-99.99,,2013-02-25 22:42:00,
2013-02-25 14:52:00,59.0,26.0,-100.00,North,-999,-999.0,-999.0,28,-99.99,,,-99.99,,2013-02-25 22:52:00,
2013-02-25 15:01:00,59.0,26.0,-100.00,North,-999,-999.0,-999.0,28,-99.99,,,-99.99,,2013-02-25 23:01:00,
2013-02-25 15:11:00,59.0,26.0,-100.00,North,-999,-999.0,-999.0,28,-99.99,,,-99.99,,2013-02-25 23:11:00,
2013-02-25 15:22:00,59.0,26.0,-100.00,North,-999,-999.0,-999.0,28,-99.99,,,-99.99,,2013-02-25 23:22:00,
2013-02-25 15:31:00,59.0,28.0,-100.00,North,-999,-999.0,-999.0,30,-99.99,,,-99.99,,2013-02-25 23:31:00,
2013-02-25 15:42:00,59.0,28.0,-100.00,North,-999,-999.0,-999.0,30,-99.99,,,-99.99,,2013-02-25 23:42:00,
2013-02-25 15:52:00,59.0,28.0,-100.00,North,-999,-999.0,-999.0,30,-99.99,,,-99.99,,2013-02-25 23:52:00,
2013-02-25 16:01:00,59.0,28.0,-100.00,North,-999,-999.0,-999.0,30,-99.99,,,-99.99,,2013-02-26 00:01:00,
2013-02-25 16:32:00,58.0,27.0,-100.00,North,-999,-999.0,-999.0,30,-99.99,,,-99.99,,2013-02-26 00:32:00,
2013-02-25 16:42:00,58.0,27.0,-100.00,North,-999,-999.0,-999.0,30,-99.99,,,-99.99,,2013-02-26 00:42:00,
2013-02-25 16:52:00,58.0,27.0,-100.00,North,-999,-999.0,-999.0,30,-99.99,,,-99.99,,2013-02-26 00:52:00,
2013-02-25 17:01:00,57.0,27.0,-100.00,North,-999,-999.0,-999.0,32,-99.99,,,-99.99,,2013-02-26 01:01:00,
2013-02-25 17:11:00,57.0,27.0,-100.00,North,-999,-999.0,-999.0,32,-99.99,,,-99.99,,2013-02-26 01:11:00,
2013-02-25 17:21:00,57.0,27.0,-100.00,North,-999,-999.0,-999.0,32,-99.99,,,-99.99,,2013-02-26 01:21:00,
2013-02-25 17:31:00,57.0,27.0,-100.00,North,-999,-999.0,-999.0,32,-99.99,,,-99.99,,2013-02-26 01:31:00,
2013-02-25 18:32:00,45.0,25.0,-100.00,North,-999,-999.0,-999.0,45,-99.99,,,-99.99,,2013-02-26 02:32:00,
2013-02-25 18:42:00,45.0,25.0,-100.00,North,-999,-999.0,-999.0,45,-99.99,,,-99.99,,2013-02-26 02:42:00,
2013-02-25 18:52:00,45.0,25.0,-100.00,North,-999,-999.0,-999.0,45,-99.99,,,-99.99,,2013-02-26 02:52:00,
2013-02-25 19:01:00,39.0,24.0,-100.00,North,-999,-999.0,-999.0,55,-99.99,,,-99.99,,2013-02-26 03:01:00,
2013-02-25 19:11:00,39.0,24.0,-100.00,North,-999,-999.0,-999.0,55,-99.99,,,-99.99,,2013-02-26 03:11:00,
2013-02-25 19:21:00,39.0,24.0,-100.00,North,-999,-999.0,-999.0,55,-99.99,,,-99.99,,2013-02-26 03:21:00,
2013-02-25 19:31:00,38.0,24.0,-100.00,North,-999,-999.0,-999.0,56,-99.99,,,-99.99,,2013-02-26 03:31:00,
2013-02-25 19:42:00,38.0,24.0,-100.00,North,-999,-999.0,-999.0,56,-99.99,,,-99.99,,2013-02-26 03:42:00,
2013-02-25 19:52:00,38.0,24.0,-100.00,North,-999,-999.0,-999.0,56,-99.99,,,-99.99,,2013-02-26 03:52:00,
2013-02-25 20:01:00,50.0,16.0,-100.00,North,-999,-999.0,-999.0,26,-99.99,,,-99.99,,2013-02-26 04:01:00,
2013-02-25 20:11:00,50.0,16.0,-100.00,North,-999,-999.0,-999.0,26,-99.99,,,-99.99,,2013-02-26 04:11:00,
2013-02-25 20:21:00,50.0,16.0,-100.00,North,-999,-999.0,-999.0,26,-99.99,,,-99.99,,2013-02-26 04:21:00,
2013-02-25 20:31:00,49.0,17.0,-100.00,North,-999,-999.0,-999.0,28,-99.99,,,-99.99,,2013-02-26 04:31:00,
2013-02-25 20:42:00,49.0,17.0,-100.00,North,-999,-999.0,-999.0,28,-99.99,,,-99.99,,2013-02-26 04:42:00,
2013-02-25 20:52:00,49.0,17.0,-100.00,North,-999,-999.0,-999.0,28,-99.99,,,-99.99,,2013-02-26 04:52:00,
2013-02-25 21:01:00,41.0,16.0,-100.00,North,-999,-999.0,-999.0,36,-99.99,,,-99.99,,2013-02-26 05:01:00,
2013-02-25 21:11:00,41.0,16.0,-100.00,North,-999,-999.0,-999.0,36,-99.99,,,-99.99,,2013-02-26 05:11:00,
2013-02-25 21:21:00,41.0,16.0,-100.00,North,-999,-999.0,-999.0,36,-99.99,,,-99.99,,2013-02-26 05:21:00,
2013-02-25 21:31:00,38.0,16.0,-100.00,North,-999,-999.0,-999.0,40,-99.99,,,-99.99,,2013-02-26 05:31:00,
2013-02-25 21:43:00,38.0,16.0,-100.00,North,-999,-999.0,-999.0,40,-99.99,,,-99.99,,2013-02-26 05:43:00,
2013-02-25 21:52:00,38.0,16.0,-100.00,North,-999,-999.0,-999.0,40,-99.99,,,-99.99,,2013-02-26 05:52:00,
2013-02-25 22:01:00,34.0,16.0,-100.00,North,-999,-999.0,-999.0,48,-99.99,,,-99.99,,2013-02-26 06:01:00,
2013-02-25 22:11:00,34.0,16.0,-100.00,North,-999,-999.0,-999.0,48,-99.99,,,-99.99,,2013-02-26 06:11:00,
2013-02-25 22:21:00,34.0,16.0,-100.00,North,-999,-999.0,-999.0,48,-99.99,,,-99.99,,2013-02-26 06:21:00,
2013-02-25 22:31:00,34.0,16.0,-100.00,North,-999,-999.0,-999.0,48,-99.99,,,-99.99,,2013-02-26 06:31:00,
2013-02-25 23:01:00,30.0,15.0,-100.00,North,-999,-999.0,-999.0,54,-99.99,,,-99.99,,2013-02-26 07:01:00,
2013-02-25 23:11:00,30.0,15.0,-100.00,North,-999,-999.0,-999.0,54,-99.99,,,-99.99,,2013-02-26 07:11:00,
2013-02-25 23:22:00,30.0,15.0,-100.00,North,-999,-999.0,-999.0,54,-99.99,,,-99.99,,2013-02-26 07:22:00,
2013-02-25 23:31:00,29.0,14.0,-100.00,North,-999,-999.0,-999.0,53,-99.99,,,-99.99,,2013-02-26 07:31:00,
2013-02-25 23:42:00,29.0,14.0,-100.00,North,-999,-999.0,-999.0,53,-99.99,,,-99.99,,2013-02-26 07:42:00,
2013-02-25 23:52:00,28.0,16.0,-100.00,North,-999,-999.0,-999.0,59,-99.99,,,-99.99,,2013-02-26 07:52:00,